GW3254 Weather Reports


time (UTC)temp
C
wind
direction
speed
KPH
gust
KPH
rain 1hr
cm
rain 24hr
cm
rain mn
cm
humidity
%
barometer
mb
20260502195935 13 152 3.2 6.4 0.18 0.18 0.18 60 1006.6
20260502195432 13 105 3.2 4.8 0.18 0.18 0.18 60 1006.7
20260502194928 13 178 3.2 4.8 0.30 0.15 0.15 60 1006.9
20260502194420 13 214 4.8 16.1 0.43 0.15 0.15 59 1006.9
20260502193915 13 204 11.3 14.5 0.36 0.10 0.10 59 1007.0
20260502193413 13 149 3.2 9.7 0.23 0.08 0.08 58 1007.0
20260502192908 14 168 3.2 8.0 0.18 0.05 0.05 58 1007.0
20260502192405 14 147 3.2 8.0 0.05 0.03 0.03 57 1006.9
20260502191902 14 172 3.2 6.4 0.05 0.03 0.03 57 1006.8
20260502191400 14 172 4.8 4.8 0.05 0.03 0.03 57 1006.8
20260502190858 14 22 3.2 3.2 0.00 0.00 0.00 56 1006.8
20260502190354 14 185 4.8 9.7 0.05 0.00 0.00 56 1006.7
20260502185850 14 155 4.8 9.7 0.05 0.00 0.00 56 1006.7
20260502185346 14 226 4.8 8.0 0.00 0.00 0.00 55 1007.0
20260502184843 14 155 6.4 9.7 0.00 0.00 0.00 55 1006.9
20260502184339 14 168 3.2 14.5 0.00 0.00 0.00 54 1006.8
20260502183835 15 210 4.8 11.3 0.00 0.00 0.00 54 1006.6
20260502183331 15 187 3.2 11.3 0.00 0.00 0.00 54 1006.6
20260502182826 15 210 4.8 8.0 0.00 0.00 0.00 54 1006.5
20260502182322 15 174 4.8 9.7 0.00 0.00 0.00 53 1006.1
20260502181819 15 176 1.6 9.7 0.00 0.00 0.00 53 1006.2
20260502181318 15 173 6.4 9.7 0.00 0.00 0.00 53 1006.2
20260502180815 15 176 4.8 8.0 0.00 0.00 0.00 53 1006.5
20260502180312 15 183 6.4 6.4 0.00 0.00 0.00 52 1006.4
20260502170220 15 233 8.0 17.7 0.00 0.00 0.00 50 1006.7
20260502164201 16 195 8.0 22.5 0.00 0.00 0.00 48 1006.7
20260502163656 16 182 4.8 25.7 0.00 0.00 0.00 48 1006.5
20260502163154 16 185 4.8 12.9 0.00 0.00 0.00 48 1006.8
20260502162650 16 180 6.4 11.3 0.00 0.00 0.00 48 1006.7
20260502162147 16 204 17.7 29.0 0.00 0.00 0.00 48 1007.0
20260502161644 16 247 11.3 24.1 0.00 0.00 0.00 47 1007.0
20260502161141 16 189 6.4 17.7 0.00 0.00 0.00 48 1007.1
20260502160639 16 213 6.4 17.7 0.00 0.00 0.00 47 1007.2
20260502160138 16 266 11.3 17.7 0.00 0.00 0.00 48 1007.1
20260502152051 17 209 6.4 24.1 0.00 0.00 0.00 46 1007.3
20260502151549 17 184 8.0 16.1 0.00 0.00 0.00 47 1006.9
20260502151046 17 207 14.5 20.9 0.00 0.00 0.00 47 1007.4
20260502150544 18 224 8.0 19.3 0.00 0.00 0.00 47 1007.4
20260502130428 19 244 4.8 17.7 0.00 0.00 0.00 50 1008.2
20260502123411 18 213 6.4 16.1 0.00 0.00 0.00 53 1008.6
20260502122908 18 183 3.2 16.1 0.00 0.00 0.00 53 1008.7
20260502122404 18 237 6.4 12.9 0.00 0.00 0.00 53 1008.7
20260502121903 18 193 12.9 27.4 0.00 0.00 0.00 53 1008.6
20260502121359 18 238 6.4 25.7 0.00 0.00 0.00 52 1008.5
20260502120857 18 216 3.2 14.5 0.00 0.00 0.00 53 1008.4
20260502120353 18 185 4.8 19.3 0.00 0.00 0.00 52 1008.7
20260502115850 18 170 6.4 17.7 0.00 0.00 0.00 51 1008.7
20260502115347 18 195 14.5 20.9 0.00 0.00 0.00 51 1008.9
20260502114843 18 201 14.5 17.7 0.00 0.00 0.00 52 1008.9
20260502114341 18 189 8.0 24.1 0.00 0.00 0.00 53 1008.8
20260502113837 18 221 8.0 17.7 0.00 0.00 0.00 54 1008.7
20260502113335 18 233 11.3 22.5 0.00 0.00 0.00 53 1008.6
20260502112833 18 249 4.8 19.3 0.00 0.00 0.00 53 1008.8
20260502112330 18 204 14.5 20.9 0.00 0.00 0.00 53 1008.8
20260502111828 18 201 11.3 19.3 0.00 0.00 0.00 53 1008.9
20260502111325 18 187 6.4 27.4 0.00 0.00 0.00 53 1009.0
20260502110823 18 193 8.0 14.5 0.00 0.00 0.00 55 1009.1
20260502110320 18 222 17.7 29.0 0.00 0.00 0.00 54 1009.2
20260502105818 17 199 11.3 25.7 0.00 0.00 0.00 55 1009.1
20260502105314 17 186 6.4 17.7 0.00 0.00 0.00 55 1009.0
20260502104812 17 176 6.4 19.3 0.00 0.00 0.00 56 1009.3
20260502104309 17 212 14.5 33.8 0.00 0.00 0.00 55 1009.3
20260502103806 17 260 1.6 22.5 0.00 0.00 0.00 57 1009.2
20260502103304 17 208 3.2 17.7 0.00 0.00 0.00 57 1009.3
20260502102801 17 183 9.7 25.7 0.00 0.00 0.00 57 1009.2
20260502102257 17 219 19.3 22.5 0.00 0.00 0.00 58 1009.2
20260502101755 16 7 8.0 19.3 0.00 0.00 0.00 59 1009.5
20260502101253 16 205 4.8 12.9 0.00 0.00 0.00 59 1009.3
20260502100751 16 198 6.4 24.1 0.00 0.00 0.00 59 1009.2
20260502100250 16 205 12.9 24.1 0.00 0.00 0.00 60 1009.4
20260502091224 14 207 11.3 17.7 0.00 0.00 0.00 56 1010.0
20260502090721 14 217 12.9 20.9 0.00 0.00 0.00 56 1010.1
20260502090217 13 221 9.7 19.3 0.00 0.00 0.00 56 1010.1
20260502071113 11 202 12.9 16.1 0.00 0.00 0.00 61 1010.8
20260502070611 11 234 12.9 22.5 0.00 0.00 0.00 61 1010.9
20260502070109 11 180 6.4 14.5 0.00 0.00 0.00 62 1010.9
20260502065607 11 212 4.8 12.9 0.00 0.00 0.00 63 1010.9
20260502065104 10 194 4.8 8.0 0.00 0.00 0.00 63 1010.9
20260502064603 10 190 8.0 14.5 0.00 0.00 0.00 63 1011.1
20260502064100 10 176 9.7 12.9 0.00 0.00 0.00 63 1011.0
20260502063557 10 221 6.4 24.1 0.00 0.00 0.00 63 1011.1
20260502063055 10 210 12.9 20.9 0.00 0.00 0.00 63 1011.2
20260502062552 10 195 6.4 12.9 0.00 0.00 0.00 63 1011.2
20260502062050 10 265 8.0 16.1 0.00 0.00 0.00 64 1011.2
20260502061547 10 192 6.4 17.7 0.00 0.00 0.00 64 1011.3
20260502061044 10 194 4.8 9.7 0.00 0.00 0.00 64 1011.2
20260502060545 10 204 4.8 12.9 0.00 0.00 0.00 65 1011.3
20260502060042 10 199 11.3 12.9 0.00 0.00 0.00 65 1011.4
20260502055539 9 198 4.8 11.3 0.00 0.00 0.00 64 1011.5
20260502055038 9 217 6.4 11.3 0.00 0.00 0.00 65 1011.4
20260502054536 9 206 11.3 12.9 0.00 0.00 0.00 65 1011.5
20260502054033 9 179 9.7 14.5 0.00 0.00 0.00 66 1011.7
20260502053530 9 183 6.4 8.0 0.00 0.00 0.00 66 1011.8
20260502053028 9 189 8.0 9.7 0.00 0.00 0.00 66 1011.9
20260502052526 9 223 3.2 9.7 0.00 0.00 0.00 65 1011.8
20260502052024 9 177 6.4 12.9 0.00 0.00 0.00 65 1011.9
20260502051521 8 165 6.4 14.5 0.00 0.00 0.00 65 1011.9
20260502051019 8 181 4.8 19.3 0.00 0.00 0.00 65 1011.9
20260502050515 8 198 4.8 8.0 0.00 0.00 0.00 64 1011.9
20260502050012 8 205 4.8 8.0 0.00 0.00 0.00 64 1012.2
20260502045509 8 184 8.0 11.3 0.00 0.00 0.00 64 1012.0
20260502045006 8 189 6.4 9.7 0.00 0.00 0.00 63 1012.0
20260502044502 8 188 8.0 16.1 0.00 0.00 0.00 63 1012.1
20260502043959 8 198 6.4 14.5 0.00 0.00 0.00 62 1012.1
20260502043456 8 185 8.0 12.9 0.00 0.00 0.00 61 1011.9
20260502042955 8 165 8.0 11.3 0.00 0.00 0.00 61 1012.2
20260502042453 8 188 8.0 9.7 0.00 0.00 0.00 61 1012.1
20260502041950 8 238 3.2 12.9 0.00 0.00 0.00 61 1012.3
20260502041448 8 172 4.8 8.0 0.00 0.00 0.00 61 1012.3
20260502040944 8 193 4.8 9.7 0.00 0.00 0.00 61 1012.4
20260502040441 8 177 4.8 8.0 0.00 0.00 0.00 61 1012.5
20260502035937 8 179 4.8 9.7 0.00 0.00 0.00 61 1012.5
20260502035434 9 180 9.7 11.3 0.00 0.00 0.00 60 1012.6
20260502034932 9 168 4.8 8.0 0.00 0.00 0.00 59 1012.5
20260502034430 9 179 4.8 9.7 0.00 0.00 0.00 59 1012.5
20260502033928 9 169 4.8 6.4 0.00 0.00 0.00 59 1012.5
20260502033425 9 171 8.0 8.0 0.00 0.00 0.00 59 1012.7
20260502032922 9 173 6.4 11.3 0.00 0.00 0.00 59 1012.9
20260502032418 9 174 6.4 8.0 0.00 0.00 0.00 59 1012.8
20260502031915 10 188 4.8 8.0 0.00 0.00 0.00 59 1012.8
20260502031414 10 171 3.2 6.4 0.00 0.00 0.00 59 1012.9
20260502030912 10 172 3.2 4.8 0.00 0.00 0.00 59 1012.8
20260502030410 10 196 0.0 4.8 0.00 0.00 0.00 59 1013.2
20260502025908 10 168 3.2 6.4 0.00 0.00 0.00 59 1013.1
20260502025404 10 170 4.8 6.4 0.00 0.00 0.00 59 1013.3
20260502024902 10 172 4.8 4.8 0.00 0.00 0.00 59 1012.9
20260502024400 10 172 3.2 4.8 0.00 0.00 0.00 60 1012.9
20260502023858 10 165 4.8 4.8 0.00 0.00 0.00 60 1013.1
20260502023355 10 164 3.2 6.4 0.00 0.00 0.00 60 1013.2
20260502022853 10 180 1.6 4.8 0.00 0.00 0.00 60 1013.1
20260502022349 10 180 3.2 4.8 0.00 0.00 0.00 60 1013.3
20260502021846 10 161 4.8 8.0 0.00 0.00 0.00 60 1013.5
20260502021343 10 169 6.4 6.4 0.00 0.00 0.00 60 1013.3
20260502020840 10 164 4.8 6.4 0.00 0.00 0.00 60 1013.3
20260502020338 10 168 4.8 6.4 0.00 0.00 0.00 60 1013.5
20260502015835 10 156 3.2 6.4 0.00 0.00 0.00 60 1013.6
20260502015332 10 171 3.2 4.8 0.00 0.00 0.00 60 1013.8
20260502014829 10 171 6.4 8.0 0.00 0.00 0.00 60 1013.8
20260502014326 10 177 4.8 8.0 0.00 0.00 0.00 60 1013.7
20260502013822 10 162 4.8 8.0 0.00 0.00 0.00 60 1013.9
20260502013318 10 179 6.4 9.7 0.00 0.00 0.00 60 1013.8
20260502012814 10 182 4.8 9.7 0.00 0.00 0.00 60 1013.7
20260502012312 10 160 3.2 8.0 0.00 0.00 0.00 60 1013.9
20260502011809 10 187 6.4 8.0 0.00 0.00 0.00 60 1014.0
20260502011305 10 182 4.8 8.0 0.00 0.00 0.00 60 1014.0
20260502010803 10 164 3.2 8.0 0.00 0.00 0.00 60 1014.2
20260502010259 10 184 8.0 11.3 0.00 0.00 0.00 60 1014.1
20260502005756 10 161 6.4 11.3 0.00 0.00 0.00 60 1014.3
20260502005254 10 181 4.8 8.0 0.00 0.00 0.00 60 1014.4
20260502004751 10 164 4.8 8.0 0.00 0.00 0.00 60 1014.3
20260502004247 10 179 4.8 8.0 0.00 0.00 0.00 60 1014.4
20260502003745 10 168 6.4 11.3 0.00 0.00 0.00 60 1014.3
20260502003242 11 168 4.8 9.7 0.00 0.00 0.00 60 1014.3
20260502002737 11 186 3.2 6.4 0.00 0.00 0.00 60 1014.5
20260502002235 11 169 3.2 8.0 0.00 0.00 0.00 60 1014.5
20260502001732 11 211 4.8 6.4 0.00 0.00 0.00 60 1014.8
20260502001231 11 231 4.8 9.7 0.00 0.00 0.00 60 1014.5
20260502000728 11 192 8.0 16.1 0.00 0.00 0.00 60 1014.7
20260502000226 11 203 8.0 9.7 0.00 0.00 0.00 60 1014.7
20260501235721 11 219 6.4 11.3 0.00 0.00 0.00 60 1014.8
20260501235217 11 194 3.2 11.3 0.00 0.00 0.00 60 1014.9
20260501234713 11 204 4.8 11.3 0.00 0.00 0.00 59 1014.9
20260501234210 11 172 4.8 9.7 0.00 0.00 0.00 59 1014.7
20260501233708 11 166 4.8 9.7 0.00 0.00 0.00 59 1014.7
20260501233205 11 193 4.8 6.4 0.00 0.00 0.00 59 1015.1
20260501232701 11 178 3.2 11.3 0.00 0.00 0.00 59 1014.9
20260501232159 11 175 3.2 17.7 0.00 0.00 0.00 59 1015.0
20260501231656 11 213 9.7 12.9 0.00 0.00 0.00 59 1015.0
20260501231154 11 203 6.4 11.3 0.00 0.00 0.00 58 1015.0
20260501230652 11 167 4.8 9.7 0.00 0.00 0.00 58 1015.1
20260501230150 11 194 6.4 8.0 0.00 0.00 0.00 58 1015.2
20260501225648 11 207 6.4 16.1 0.00 0.00 0.00 58 1015.1
20260501225144 11 191 6.4 16.1 0.00 0.00 0.00 58 1015.3
20260501224641 11 197 9.7 16.1 0.00 0.00 0.00 57 1015.3
20260501224138 11 205 6.4 11.3 0.00 0.00 0.00 57 1015.3
20260501223634 11 183 6.4 16.1 0.00 0.00 0.00 57 1015.5
20260501223131 12 207 9.7 14.5 0.00 0.00 0.00 57 1015.5
20260501222627 12 189 4.8 9.7 0.00 0.00 0.00 57 1015.7
20260501222124 12 212 3.2 11.3 0.00 0.00 0.00 57 1015.3
20260501221621 12 207 4.8 17.7 0.00 0.00 0.00 56 1015.8
20260501221118 12 204 4.8 12.9 0.00 0.00 0.00 56 1015.7
20260501220616 12 180 4.8 14.5 0.00 0.00 0.00 56 1015.8
20260501220113 12 188 4.8 14.5 0.00 0.00 0.00 56 1016.0
20260501215609 12 163 14.5 17.7 0.00 0.00 0.00 56 1015.9
20260501215105 12 212 6.4 16.1 0.00 0.00 0.00 56 1015.8
20260501214600 12 208 9.7 12.9 0.00 0.00 0.00 55 1016.1
20260501214055 12 224 8.0 22.5 0.00 0.00 0.00 55 1015.8
20260501213553 12 250 3.2 14.5 0.00 0.00 0.00 55 1016.0
20260501213049 12 196 6.4 16.1 0.00 0.00 0.00 55 1016.0
20260501212545 12 227 12.9 14.5 0.00 0.00 0.00 55 1016.1
20260501212042 12 231 8.0 11.3 0.00 0.00 0.00 55 1016.3
20260501211539 12 211 12.9 12.9 0.00 0.00 0.00 55 1016.3
20260501211038 12 213 14.5 14.5 0.00 0.00 0.00 55 1016.2
20260501210533 12 213 11.3 25.7 0.00 0.00 0.00 54 1016.4
20260501210030 13 234 4.8 14.5 0.00 0.00 0.00 54 1016.5
20260501205527 13 185 6.4 22.5 0.00 0.00 0.00 54 1016.5
20260501205025 13 199 9.7 11.3 0.00 0.00 0.00 54 1016.5
20260501204520 13 191 4.8 16.1 0.00 0.00 0.00 53 1016.3
20260501204016 13 215 9.7 14.5 0.00 0.00 0.00 53 1016.5
20260501203513 13 190 4.8 14.5 0.00 0.00 0.00 53 1016.6
20260501203011 13 333 0.0 14.5 0.00 0.00 0.00 53 1016.4
20260501202508 13 177 4.8 17.7 0.00 0.00 0.00 53 1016.5
20260501202004 13 207 3.2 8.0 0.00 0.00 0.00 52 1016.5
20260501201501 13 219 11.3 14.5 0.00 0.00 0.00 52 1016.4
20260501200958 13 182 4.8 16.1 0.00 0.00 0.00 52 1016.2
20260501200455 13 221 6.4 12.9 0.00 0.00 0.00 52 1016.5